Location: Christianberg
(48.9086°N, 14.0209°E)
Time: 21:26:39
(UTC+00:00)

NOSS 2-2 (D) - Pass Details

Date: 20 June 2021
Orbit: 453 x 1754 km, 63.3° (Epoch: 01 August)

Event Time Altitude Azimuth Distance (km) Brightness Sun altitude
Exits shadow 01:31:04 16° 226° (SW) 1,270 4.5 -10.7°
Maximum altitude 01:33:43 80° 313° (NW) 484 3.0 -10.5°
Drops below altitude 10° 01:37:31 10° 40° (NE) 1,775 7.5 -10.1°
Sets 01:39:55 0° 42° (NE) 2,800 9.1 -9.9°
